CW5757 Weather Reports


Display with metric or nautical units.
time (UTC)temp
F
wind
direction
speed
MPH
gust
MPH
rain 1hr
in
rain 24hr
in
rain mn
in
humidity
%
barometer
mb
20260505073345 51 41 0.0 0.0 0.00 0.00 0.00 74 1015.1
20260505072845 52 41 0.0 1.0 0.00 0.00 0.00 74 1015.1
20260505072346 52 41 0.0 1.0 0.00 0.00 0.00 73 1015.3
20260505071853 52 41 0.0 0.0 0.00 0.00 0.00 72 1015.3
20260505071400 52 41 0.0 4.0 0.00 0.00 0.00 72 1015.3
20260505070907 52 41 1.0 4.0 0.00 0.00 0.00 72 1015.3
20260505070414 52 204 0.0 0.0 0.00 0.00 0.00 72 1015.1
20260505065909 52 204 0.0 0.0 0.00 0.00 0.00 72 1015.0
20260505065345 52 204 0.0 0.0 0.00 0.00 0.00 72 1014.9
20260505064845 53 204 0.0 0.0 0.00 0.00 0.00 71 1015.0
20260505064345 53 204 0.0 0.0 0.00 0.00 0.00 72 1015.0
20260505063845 53 204 0.0 0.0 0.00 0.00 0.00 71 1015.0
20260505063348 54 204 0.0 0.0 0.00 0.00 0.00 71 1015.0
20260505062855 54 204 0.0 0.0 0.00 0.00 0.00 70 1015.0
20260505062402 54 204 0.0 0.0 0.00 0.00 0.00 69 1015.1
20260505061857 54 204 0.0 0.0 0.00 0.00 0.00 69 1015.1
20260505061345 54 204 0.0 0.0 0.00 0.00 0.00 69 1015.1
20260505060845 55 204 0.0 0.0 0.00 0.00 0.00 69 1015.2
20260505060345 55 204 0.0 0.0 0.00 0.00 0.00 69 1015.1
20260505055850 55 204 0.0 0.0 0.00 0.00 0.00 68 1015.2
20260505055357 55 204 0.0 0.0 0.00 0.00 0.00 68 1015.1
20260505054845 55 204 0.0 0.0 0.00 0.00 0.00 68 1015.1
20260505054345 55 204 0.0 0.0 0.00 0.00 0.00 67 1015.1
20260505053847 55 204 0.0 0.0 0.00 0.00 0.00 67 1015.2
20260505053353 56 204 0.0 0.0 0.00 0.00 0.00 67 1015.2
20260505052900 56 204 0.0 0.0 0.00 0.00 0.00 66 1015.2
20260505052407 56 204 0.0 0.0 0.00 0.00 0.00 67 1015.2
20260505051902 56 204 0.0 0.0 0.00 0.00 0.00 67 1015.1
20260505051357 56 204 0.0 0.0 0.00 0.00 0.00 65 1015.2
20260505050849 56 204 0.0 0.0 0.00 0.00 0.00 66 1015.3
20260505050356 57 204 0.0 0.0 0.00 0.00 0.00 66 1015.2
20260505041345 59 204 0.0 0.0 0.00 0.00 0.00 61 1015.2
20260505040845 60 204 0.0 0.0 0.00 0.00 0.00 61 1015.2
20260505040345 60 204 0.0 0.0 0.00 0.00 0.00 60 1015.3
20260505035845 60 204 0.0 0.0 0.00 0.00 0.00 60 1015.3
20260505035350 60 204 0.0 0.0 0.00 0.00 0.00 60 1015.3
20260505034857 60 204 0.0 0.0 0.00 0.00 0.00 58 1015.4
20260505034345 60 204 0.0 0.0 0.00 0.00 0.00 55 1015.4
20260505033845 61 204 0.0 0.0 0.00 0.00 0.00 54 1015.4
20260505033010 61 204 0.0 0.0 0.00 0.00 0.00 54 1015.4
20260505032510 61 204 0.0 0.0 0.00 0.00 0.00 54 1015.4
20260505032015 61 204 0.0 0.0 0.00 0.00 0.00 57 1015.4
20260505031522 62 204 0.0 0.0 0.00 0.00 0.00 57 1015.5
20260505031010 62 204 0.0 0.0 0.00 0.00 0.00 58 1015.5
20260505030513 62 204 0.0 0.0 0.00 0.00 0.00 56 1015.5
20260505030020 62 204 0.0 0.0 0.00 0.00 0.00 57 1015.4
20260505025527 62 204 0.0 0.0 0.00 0.00 0.00 57 1015.4
20260505025034 63 204 0.0 0.0 0.00 0.00 0.00 55 1015.4
20260505024510 63 204 0.0 0.0 0.00 0.00 0.00 53 1015.4
20260505024009 63 204 0.0 0.0 0.00 0.00 0.00 52 1015.4
20260505023510 64 204 0.0 0.0 0.00 0.00 0.00 52 1015.4
20260505023010 64 204 0.0 0.0 0.00 0.00 0.00 51 1015.4
20260505022510 64 204 0.0 0.0 0.00 0.00 0.00 49 1015.5
20260505022010 64 204 0.0 0.0 0.00 0.00 0.00 49 1015.4
20260505021509 65 204 0.0 0.0 0.00 0.00 0.00 50 1015.4
20260505021010 65 204 0.0 0.0 0.00 0.00 0.00 53 1015.4
20260505020510 65 204 0.0 0.0 0.00 0.00 0.00 49 1015.3
20260505020010 65 204 0.0 0.0 0.00 0.00 0.00 49 1015.2
20260505015430 66 204 0.0 0.0 0.00 0.00 0.00 51 1015.1
20260505014937 66 204 0.0 0.0 0.00 0.00 0.00 51 1015.2
20260505014432 66 204 0.0 0.0 0.00 0.00 0.00 52 1015.1
20260505013915 67 204 0.0 0.0 0.00 0.00 0.00 50 1015.0
20260505013422 67 204 0.0 0.0 0.00 0.00 0.00 50 1014.8
20260505012929 68 204 0.0 0.0 0.00 0.00 0.00 48 1014.8
20260505012424 68 204 0.0 0.0 0.00 0.00 0.00 47 1014.8
20260505011919 68 204 0.0 0.0 0.00 0.00 0.00 47 1014.7
20260505011425 69 204 0.0 0.0 0.00 0.00 0.00 43 1014.7
20260505010932 70 204 0.0 0.0 0.00 0.00 0.00 43 1014.7
20260505010439 70 204 0.0 0.0 0.00 0.00 0.00 43 1014.6
20260505005934 70 204 0.0 0.0 0.00 0.00 0.00 41 1014.6
20260505005441 71 204 0.0 0.0 0.00 0.00 0.00 40 1014.6
20260505004948 71 204 0.0 0.0 0.00 0.00 0.00 40 1014.5
20260505004443 71 204 0.0 0.0 0.00 0.00 0.00 39 1014.5
20260505003950 72 204 0.0 0.0 0.00 0.00 0.00 38 1014.4
20260505003457 72 204 0.0 0.0 0.00 0.00 0.00 39 1014.3
20260505003004 72 204 0.0 0.0 0.00 0.00 0.00 38 1014.3
20260505002511 73 204 0.0 0.0 0.00 0.00 0.00 39 1014.3
20260505001319 73 204 0.0 0.0 0.00 0.00 0.00 38 1014.3
20260505000819 74 204 0.0 0.0 0.00 0.00 0.00 38 1014.2
20260505000319 74 204 0.0 0.0 0.00 0.00 0.00 37 1014.2
20260504235819 74 204 0.0 0.0 0.00 0.00 0.00 38 1014.3
20260504235319 74 204 0.0 0.0 0.00 0.00 0.00 37 1014.2
20260504234818 75 204 0.0 0.0 0.00 0.00 0.00 38 1014.2
20260504234318 75 204 0.0 0.0 0.00 0.00 0.00 37 1014.2
20260504233819 75 204 0.0 0.0 0.00 0.00 0.00 37 1014.2
20260504233319 75 204 0.0 0.0 0.00 0.00 0.00 37 1014.1
20260504232819 75 204 0.0 0.0 0.00 0.00 0.00 36 1014.1
20260504232319 76 204 0.0 0.0 0.00 0.00 0.00 36 1014.0
20260504231818 76 204 0.0 0.0 0.00 0.00 0.00 35 1013.9
20260504231318 76 204 0.0 0.0 0.00 0.00 0.00 35 1013.9
20260504230824 76 204 0.0 0.0 0.00 0.00 0.00 35 1013.8
20260504230331 77 204 0.0 0.0 0.00 0.00 0.00 35 1013.9
20260504225819 77 204 0.0 0.0 0.00 0.00 0.00 34 1013.8
20260504225200 77 204 0.0 0.0 0.00 0.00 0.00 34 1013.8
20260504224642 77 204 0.0 0.0 0.00 0.00 0.00 31 1013.8
20260504224130 77 204 0.0 0.0 0.00 0.00 0.00 32 1013.9
20260504223630 78 204 0.0 0.0 0.00 0.00 0.00 31 1014.1
20260504223130 78 204 0.0 0.0 0.00 0.00 0.00 31 1014.0
20260504222635 78 204 0.0 0.0 0.00 0.00 0.00 32 1014.0
20260504222142 78 204 0.0 0.0 0.00 0.00 0.00 31 1014.0
20260504221630 78 204 0.0 0.0 0.00 0.00 0.00 30 1013.9
20260504221130 78 204 0.0 0.0 0.00 0.00 0.00 30 1013.9
20260504220630 78 204 0.0 0.0 0.00 0.00 0.00 31 1013.9
20260504215749 79 204 0.0 0.0 0.00 0.00 0.00 31 1013.8
20260504215249 79 204 0.0 0.0 0.00 0.00 0.00 31 1013.8
20260504214749 79 204 0.0 0.0 0.00 0.00 0.00 30 1013.8
20260504214249 79 204 0.0 0.0 0.00 0.00 0.00 29 1013.9
20260504213749 79 204 0.0 0.0 0.00 0.00 0.00 28 1013.9
20260504213254 79 204 0.0 0.0 0.00 0.00 0.00 28 1013.9
20260504212801 79 204 0.0 0.0 0.00 0.00 0.00 29 1013.8
20260504212249 79 204 0.0 0.0 0.00 0.00 0.00 30 1013.8
20260504211749 79 204 0.0 0.0 0.00 0.00 0.00 30 1013.8
20260504211249 79 204 0.0 0.0 0.00 0.00 0.00 30 1013.9
20260504210749 79 204 0.0 0.0 0.00 0.00 0.00 30 1014.0
20260504210249 79 204 0.0 0.0 0.00 0.00 0.00 28 1014.0
20260504205749 80 204 0.0 0.0 0.00 0.00 0.00 32 1014.1
20260504205249 80 204 0.0 0.0 0.00 0.00 0.00 31 1014.2
20260504204749 80 204 0.0 0.0 0.00 0.00 0.00 28 1014.2
20260504204249 80 204 0.0 0.0 0.00 0.00 0.00 28 1014.2
20260504203749 80 204 0.0 0.0 0.00 0.00 0.00 25 1014.2
20260504203249 80 204 0.0 0.0 0.00 0.00 0.00 26 1014.3
20260504202749 80 204 0.0 0.0 0.00 0.00 0.00 27 1014.3
20260504202254 80 204 0.0 0.0 0.00 0.00 0.00 28 1014.4
20260504201801 81 204 0.0 0.0 0.00 0.00 0.00 28 1014.4
20260504201249 81 204 0.0 0.0 0.00 0.00 0.00 25 1014.5
20260504200749 82 204 0.0 0.0 0.00 0.00 0.00 26 1014.5
20260504200255 82 204 0.0 0.0 0.00 0.00 0.00 24 1014.4
20260504195802 82 204 0.0 0.0 0.00 0.00 0.00 24 1014.5
20260504195257 83 204 0.0 0.0 0.00 0.00 0.00 25 1014.6
20260504194804 84 204 0.0 0.0 0.00 0.00 0.00 26 1014.7
20260504194259 84 204 0.0 0.0 0.00 0.00 0.00 24 1014.8
20260504193806 84 204 0.0 0.0 0.00 0.00 0.00 24 1014.9
20260504193311 84 204 0.0 0.0 0.00 0.00 0.00 23 1014.9
20260504192806 84 204 0.0 0.0 0.00 0.00 0.00 26 1015.0
20260504192313 84 204 0.0 0.0 0.00 0.00 0.00 26 1015.0
20260504191749 84 204 0.0 0.0 0.00 0.00 0.00 27 1015.1
20260504191249 84 204 0.0 0.0 0.00 0.00 0.00 25 1015.1
20260504190749 84 204 0.0 0.0 0.00 0.00 0.00 24 1015.1
20260504190249 84 204 0.0 1.0 0.00 0.00 0.00 24 1015.3
20260504185749 83 204 0.0 1.0 0.00 0.00 0.00 25 1015.4
20260504185249 83 204 0.0 0.0 0.00 0.00 0.00 26 1015.5
20260504184749 83 204 0.0 1.0 0.00 0.00 0.00 28 1015.5
20260504184255 83 204 0.0 1.0 0.00 0.00 0.00 28 1015.5
20260504183801 83 204 0.0 0.0 0.00 0.00 0.00 25 1015.6
20260504182748 84 204 0.0 2.0 0.00 0.00 0.00 26 1015.7
20260504182248 83 204 0.0 0.0 0.00 0.00 0.00 28 1015.8
20260504181753 83 204 0.0 0.0 0.00 0.00 0.00 27 1015.8
20260504181300 83 204 0.0 0.0 0.00 0.00 0.00 25 1015.8
20260504180748 83 204 0.0 0.0 0.00 0.00 0.00 25 1015.9
20260504180254 83 204 0.0 1.0 0.00 0.00 0.00 26 1015.9
20260504175801 83 204 0.0 1.0 0.00 0.00 0.00 25 1016.0
20260504175250 83 204 0.0 0.0 0.00 0.00 0.00 29 1016.0
20260504174757 82 204 0.0 0.0 0.00 0.00 0.00 30 1016.1
20260504174304 81 204 0.0 0.0 0.00 0.00 0.00 31 1016.2
20260504173811 80 204 0.0 0.0 0.00 0.00 0.00 31 1016.2
20260504173318 79 204 0.0 0.0 0.00 0.00 0.00 30 1016.2
20260504172813 79 204 0.0 0.0 0.00 0.00 0.00 31 1016.3
20260504172248 78 204 0.0 2.0 0.00 0.00 0.00 28 1016.4
20260504171748 78 204 0.0 2.0 0.00 0.00 0.00 30 1016.5
20260504171248 78 204 0.0 0.0 0.00 0.00 0.00 29 1016.5
20260504170748 78 204 0.0 0.0 0.00 0.00 0.00 33 1016.7
20260504170249 78 204 0.0 0.0 0.00 0.00 0.00 35 1016.7
20260504160248 73 204 0.0 0.0 0.00 0.00 0.00 37 1017.6
20260504150748 67 204 0.0 0.0 0.00 0.00 0.00 50 1017.6
20260504150248 67 204 0.0 0.0 0.00 0.00 0.00 50 1017.7
20260504141329 58 204 0.0 0.0 0.00 0.00 0.00 73 1017.8
20260504140824 57 204 0.0 0.0 0.00 0.00 0.00 74 1017.8
20260504140248 57 204 0.0 0.0 0.00 0.00 0.00 74 1017.7
20260504130748 49 204 0.0 0.0 0.00 0.00 0.00 85 1017.8
20260504130252 49 204 0.0 0.0 0.00 0.00 0.00 85 1017.9
20260504120311 43 204 0.0 0.0 0.00 0.00 0.00 83 1018.0
20260504110248 42 204 0.0 0.0 0.00 0.00 0.00 81 1017.7
20260504100248 43 204 0.0 0.0 0.00 0.00 0.00 78 1017.8
20260504081748 46 204 0.0 0.0 0.00 0.00 0.00 75 1017.4
20260504081248 46 204 0.0 0.0 0.00 0.00 0.00 76 1017.4
20260504080748 46 204 0.0 0.0 0.00 0.00 0.00 76 1017.4